Miscellaneous Local Product
Issued by NWS Hastings, NE

Home | Current Version | Previous Version | Text Only | Print | Product List | Glossary Off
Versions: 1 2 3 4 5 6 7 8 9 10 11 12 13 14 15 16 17 18 19 20 21 22 23 24 25 26 27 28 29 30 31 32 33 34 35 36 37 38 39 40 41 42 43 44 45 46 47 48 49 50

634
AXUS43 KGID 260102
MISGRI

GID CWA HOURLY WEATHER ROUNDUP
NATIONAL WEATHER SERVICE HASTINGS NE
800 PM CDT MON JUL 25 2016

NOTE: "FAIR" INDICATES FEW OR NO CLOUDS BELOW 12,000 FEET WITH NO
SIGNIFICANT WEATHER AND/OR OBSTRUCTIONS TO VISIBILITY.

...SOUTH CENTRAL NEBRASKA...

CITY           SKY/WX    TMP DP  RH WIND       PRES   REMARKS
GRAND ISLAND   CLEAR     81  65  58 E8        30.08R
HASTINGS       CLEAR     82  62  50 E9        30.08R
KEARNEY        CLEAR     82  63  51 E10       30.08R
ORD            CLEAR     83  61  47 SE7       30.05R
YORK           CLEAR     81  64  57 E6        30.07R
AURORA         CLEAR     80  65  59 E5        30.07S
LEXINGTON      CLEAR     82  66  58 SE9       30.07R
HOLDREGE       CLEAR     82  64  53 SE6       30.07R
HEBRON         CLEAR     83  60  45 E8        30.05R

...NEBRASKA PANHANDLE...

CITY           SKY/WX    TMP DP  RH WIND       PRES   REMARKS
CHADRON        SUNNY     90  58  33 SE15      29.99S
ALLIANCE       SUNNY     83  60  45 SE18      30.06R
SCOTTSBLUFF    SUNNY     90  56  31 SE12      30.03R
SIDNEY         SUNNY     83  60  45 S20       30.11S

...WESTERN AND NORTH CENTRAL NEBRASKA...

CITY           SKY/WX    TMP DP  RH WIND       PRES   REMARKS
VALENTINE      SUNNY     86  59  39 S14       30.04S
AINSWORTH      SUNNY     82  59  45 SE10      30.07S
ONEILL         CLEAR     83  52  34 SE7       30.07R
BROKEN BOW     CLEAR     79  64  60 SE8       30.08R
IMPERIAL       SUNNY     85  59  41 S12       30.08R
NORTH PLATTE   SUNNY     82  68  62 SE8       30.06S
MCCOOK         SUNNY     85  63  47 SE9       30.05R

...EASTERN NEBRASKA...

CITY           SKY/WX    TMP DP  RH WIND       PRES   REMARKS
NORFOLK        CLEAR     80  62  54 SE7       30.06R
SO SIOUX CITY  CLEAR     84  65  52 S5        30.04S
TEKAMAH        CLEAR     83  69  62 E5        30.04S
COLUMBUS       CLEAR     81  59  47 E8        30.06S
ALBION         CLEAR     79  65  60 E5        30.07R
OMAHA EPPLEY   PTCLDY    84  67  56 E6        30.04R
OFFUTT AFB     CLEAR     82  69  63 E6        30.05R
MILLARD        CLEAR     84  65  52 E6        30.05R
LINCOLN        CLEAR     84  64  50 E9        30.06R
NEBRASKA CITY  CLEAR     80  66  63 E3        30.06R
BEATRICE       CLEAR     82  63  51 E7        30.06R
FALLS CITY     CLEAR     82  71  69 NE3       30.04R

...NORTHERN KANSAS...

CITY           SKY/WX    TMP DP  RH WIND       PRES   REMARKS
GOODLAND       SUNNY     80  62  54 S9        30.12R
HILL CITY      CLEAR     83  66  56 E9        30.05R
NORTON         CLEAR     81  55  41 E8        30.06R
SMITH CENTER   CLEAR     82  64  54 SE8       30.05S
BELOIT         CLEAR     82  64  54 E7        30.02S
HAYS           CLEAR     82  61  47 E13       30.05R
RUSSELL        CLEAR     83  63  50 E10       30.03R
CONCORDIA      CLEAR     79  67  66 SE7       30.04S
SALINA         CLEAR     83  71  67 NE9       30.03S
TOPEKA         PTCLDY    82  69  64 NE6       30.03R



USA.gov is the U.S. government's official web portal to all federal, state and local government web resources and services.